Previsão horária em Abidzhan

Hoje, 18 Maio, Terça-feira

Tempo Temperatura Precipitação Vento Pressão Humidade
00:00 +28°C° 0 mm 4 m/s 755 mmHg 88%
01:00 +28°C° 0.1 mm 3 m/s 755 mmHg 88%
02:00 +28°C° 0.1 mm 3 m/s 754 mmHg 88%
03:00 +28°C° 0.1 mm 3 m/s 754 mmHg 88%
04:00 +30°C° 0.1 mm 4 m/s 755 mmHg 76%
05:00 +29°C° 0.1 mm 3 m/s 755 mmHg 83%
06:00 +27°C° 0.1 mm 3 m/s 755 mmHg 90%
07:00 +29°C° 0.2 mm 4 m/s 755 mmHg 85%
08:00 +30°C° 0.2 mm 4 m/s 755 mmHg 80%
09:00 +32°C° 0.2 mm 4 m/s 756 mmHg 75%
10:00 +33°C° 0.4 mm 4 m/s 755 mmHg 71%
11:00 +33°C° 0.4 mm 4 m/s 755 mmHg 68%
12:00 +34°C° 0.4 mm 4 m/s 755 mmHg 64%
13:00 +34°C° 0.3 mm 4 m/s 755 mmHg 66%
14:00 +33°C° 0.3 mm 4 m/s 754 mmHg 67%
15:00 +33°C° 0.3 mm 4 m/s 754 mmHg 68%
16:00 +32°C° 0.1 mm 4 m/s 754 mmHg 71%
17:00 +32°C° 0.1 mm 4 m/s 754 mmHg 74%
18:00 +30°C° 0.1 mm 4 m/s 754 mmHg 77%
19:00 +29°C° 0 mm 4 m/s 754 mmHg 80%
20:00 +29°C° 0 mm 3 m/s 755 mmHg 83%
21:00 +28°C° 0 mm 3 m/s 755 mmHg 86%
22:00 +28°C° 0.7 mm 2 m/s 755 mmHg 88%
23:00 +27°C° 0.7 mm 2 m/s 755 mmHg 90%

Amanhã, 19 Maio, Quarta-feira

Tempo Temperatura Precipitação Vento Pressão Humidade
00:00 +27°C° 0.7 mm 2 m/s 755 mmHg 92%
01:00 +27°C° 0.2 mm 2 m/s 755 mmHg 92%
02:00 +27°C° 0.2 mm 2 m/s 755 mmHg 92%
03:00 +27°C° 0.2 mm 2 m/s 754 mmHg 93%
04:00 +27°C° 0 mm 2 m/s 754 mmHg 92%
05:00 +27°C° 0 mm 2 m/s 755 mmHg 92%
06:00 +27°C° 0 mm 2 m/s 755 mmHg 91%
07:00 +28°C° 0.1 mm 2 m/s 755 mmHg 84%
08:00 +30°C° 0.1 mm 2 m/s 756 mmHg 78%
09:00 +31°C° 0.1 mm 3 m/s 756 mmHg 71%
10:00 +32°C° 0.3 mm 4 m/s 756 mmHg 71%
11:00 +32°C° 0.3 mm 4 m/s 756 mmHg 71%
12:00 +32°C° 0.3 mm 5 m/s 756 mmHg 70%
13:00 +32°C° 0.3 mm 5 m/s 755 mmHg 70%
14:00 +32°C° 0.3 mm 5 m/s 755 mmHg 69%
15:00 +32°C° 0.3 mm 5 m/s 754 mmHg 68%
16:00 +32°C° 0.2 mm 5 m/s 755 mmHg 72%
17:00 +30°C° 0.2 mm 4 m/s 755 mmHg 76%
18:00 +29°C° 0.2 mm 4 m/s 755 mmHg 80%
19:00 +29°C° 0 mm 4 m/s 755 mmHg 80%
20:00 +28°C° 0 mm 4 m/s 756 mmHg 81%
21:00 +28°C° 0 mm 3 m/s 756 mmHg 82%
22:00 +28°C° 0 mm 3 m/s 756 mmHg 81%
23:00 +28°C° 0 mm 4 m/s 756 mmHg 80%

Depois de amanhã, 20 Maio, Quinta-feira

Tempo Temperatura Precipitação Vento Pressão Humidade
00:00 +28°C° 0 mm 4 m/s 756 mmHg 78%
01:00 +28°C° 0 mm 3 m/s 755 mmHg 79%
02:00 +28°C° 0 mm 3 m/s 755 mmHg 79%
03:00 +28°C° 0 mm 3 m/s 755 mmHg 79%
04:00 +28°C° 0 mm 2 m/s 755 mmHg 80%
05:00 +28°C° 0 mm 2 m/s 755 mmHg 81%
06:00 +28°C° 0 mm 2 m/s 756 mmHg 81%
07:00 +28°C° 0 mm 2 m/s 756 mmHg 79%
08:00 +29°C° 0 mm 2 m/s 756 mmHg 78%
09:00 +29°C° 0 mm 2 m/s 757 mmHg 76%
10:00 +31°C° 0 mm 2 m/s 756 mmHg 69%
11:00 +33°C° 0 mm 3 m/s 756 mmHg 63%
12:00 +34°C° 0 mm 3 m/s 756 mmHg 56%
13:00 +35°C° 0 mm 3 m/s 755 mmHg 55%
14:00 +35°C° 0 mm 3 m/s 755 mmHg 53%
15:00 +35°C° 0 mm 3 m/s 754 mmHg 52%
16:00 +34°C° 0 mm 3 m/s 754 mmHg 58%
17:00 +31°C° 0 mm 3 m/s 754 mmHg 63%
18:00 +30°C° 0 mm 3 m/s 755 mmHg 69%
19:00 +30°C° 0 mm 3 m/s 755 mmHg 74%
20:00 +29°C° 0 mm 3 m/s 755 mmHg 79%
21:00 +28°C° 0 mm 4 m/s 756 mmHg 84%
22:00 +28°C° 0 mm 4 m/s 756 mmHg 83%
23:00 +28°C° 0 mm 4 m/s 756 mmHg 83%

21 Maio, Sexta-feira

Tempo Temperatura Precipitação Vento Pressão Humidade
00:00 +28°C° 0 mm 4 m/s 755 mmHg 83%
01:00 +28°C° 0 mm 4 m/s 755 mmHg 84%
02:00 +28°C° 0 mm 3 m/s 755 mmHg 85%
03:00 +28°C° 0 mm 3 m/s 755 mmHg 87%
04:00 +27°C° 0 mm 3 m/s 755 mmHg 87%
05:00 +27°C° 0 mm 2 m/s 756 mmHg 88%
06:00 +27°C° 0 mm 2 m/s 756 mmHg 88%
07:00 +29°C° 0 mm 2 m/s 756 mmHg 80%
08:00 +30°C° 0 mm 3 m/s 757 mmHg 73%
09:00 +33°C° 0 mm 3 m/s 757 mmHg 65%
10:00 +33°C° 0 mm 3 m/s 757 mmHg 64%
11:00 +33°C° 0 mm 3 m/s 756 mmHg 64%
12:00 +33°C° 0 mm 3 m/s 756 mmHg 64%
13:00 +33°C° 0.1 mm 3 m/s 756 mmHg 64%
14:00 +33°C° 0.1 mm 4 m/s 755 mmHg 64%
15:00 +33°C° 0.1 mm 4 m/s 754 mmHg 64%
16:00 +32°C° 0.1 mm 4 m/s 754 mmHg 68%
17:00 +32°C° 0.1 mm 4 m/s 754 mmHg 71%
18:00 +30°C° 0.1 mm 4 m/s 754 mmHg 74%
19:00 +29°C° 0 mm 4 m/s 755 mmHg 77%
20:00 +29°C° 0 mm 4 m/s 755 mmHg 80%
21:00 +28°C° 0 mm 4 m/s 755 mmHg 84%
22:00 +28°C° 0 mm 4 m/s 755 mmHg 85%
23:00 +28°C° 0 mm 3 m/s 755 mmHg 86%

22 Maio, Sábado

Tempo Temperatura Precipitação Vento Pressão Humidade
00:00 +28°C° 0 mm 3 m/s 755 mmHg 87%
01:00 +28°C° 0.1 mm 3 m/s 755 mmHg 87%
02:00 +28°C° 0.1 mm 3 m/s 755 mmHg 87%
03:00 +27°C° 0.1 mm 3 m/s 755 mmHg 88%
04:00 +27°C° 0 mm 2 m/s 755 mmHg 88%
05:00 +27°C° 0 mm 2 m/s 755 mmHg 88%
06:00 +27°C° 0 mm 2 m/s 755 mmHg 89%
07:00 +29°C° 0 mm 2 m/s 755 mmHg 80%
08:00 +30°C° 0 mm 2 m/s 756 mmHg 72%
09:00 +32°C° 0 mm 2 m/s 756 mmHg 64%
10:00 +34°C° 0 mm 2 m/s 756 mmHg 60%
11:00 +35°C° 0 mm 3 m/s 756 mmHg 55%
12:00 +36°C° 0 mm 3 m/s 756 mmHg 51%
13:00 +35°C° 0.1 mm 3 m/s 755 mmHg 58%
14:00 +34°C° 0.1 mm 3 m/s 755 mmHg 59%
15:00 +34°C° 0.1 mm 3 m/s 754 mmHg 61%
16:00 +33°C° 0 mm 3 m/s 754 mmHg 64%
17:00 +31°C° 0 mm 3 m/s 754 mmHg 67%
18:00 +32°C° 0 mm 4 m/s 754 mmHg 70%
19:00 +30°C° 0 mm 4 m/s 754 mmHg 74%
20:00 +29°C° 0 mm 4 m/s 755 mmHg 77%
21:00 +29°C° 0 mm 4 m/s 755 mmHg 81%
22:00 +29°C° 0 mm 4 m/s 755 mmHg 82%
23:00 +28°C° 0 mm 4 m/s 755 mmHg 84%

23 Maio, Domingo

Tempo Temperatura Precipitação Vento Pressão Humidade
00:00 +28°C° 0 mm 3 m/s 755 mmHg 85%
01:00 +28°C° 0 mm 3 m/s 755 mmHg 86%
02:00 +28°C° 0 mm 3 m/s 754 mmHg 87%
03:00 +28°C° 0 mm 3 m/s 754 mmHg 87%
04:00 +28°C° 0.2 mm 3 m/s 755 mmHg 88%
05:00 +28°C° 0.2 mm 2 m/s 755 mmHg 89%
06:00 +27°C° 0.2 mm 2 m/s 755 mmHg 89%
07:00 +29°C° 0.4 mm 2 m/s 756 mmHg 83%
08:00 +30°C° 0.4 mm 2 m/s 756 mmHg 76%
09:00 +31°C° 0.4 mm 2 m/s 757 mmHg 70%
10:00 +32°C° 0.4 mm 2 m/s 757 mmHg 67%
11:00 +34°C° 0.4 mm 3 m/s 756 mmHg 64%
12:00 +34°C° 0.4 mm 3 m/s 756 mmHg 62%
13:00 +34°C° 0.2 mm 3 m/s 755 mmHg 60%
14:00 +34°C° 0.2 mm 3 m/s 755 mmHg 59%
15:00 +35°C° 0.2 mm 3 m/s 754 mmHg 58%
16:00 +34°C° 0 mm 3 m/s 754 mmHg 62%
17:00 +31°C° 0 mm 3 m/s 755 mmHg 66%
18:00 +30°C° 0 mm 3 m/s 755 mmHg 70%
19:00 +30°C° 0 mm 3 m/s 755 mmHg 74%
20:00 +29°C° 0 mm 3 m/s 755 mmHg 78%
21:00 +29°C° 0 mm 3 m/s 755 mmHg 82%
22:00 +28°C° 0 mm 3 m/s 755 mmHg 83%
23:00 +28°C° 0 mm 3 m/s 755 mmHg 85%
Mostrar mais

Necessitamos do seu Consentimento

A Meteoprog e os seus Fornecedores de Serviços podem armazenar e aceder a dados pessoais como cookies, identificadores do dispositivo ou outras tecnologias semelhantes existentes no seu dispositivo e processar estes dados para personalizar conteúdos e anúncios, assim como funcionalidades nas redes sociais e análise de tráfego.

  • Armazenar e/ou aceder a informações no seu dispositivo

    Os cookies, identificadores do dispositivo ou outras informações podem ser armazenados ou acedidos no seu dispositivo, para os fins acima indicados.

  • Anúncios e conteúdos personalizados, medição de anúncios e conteúdos, dados sobre o público-alvo e desenvolvimento de produtos

    Os anúncios e os conteúdos podem ser personalizados com base num perfil. Podem ser adicionados dados adicionais para uma maior personalização dos anúncios e dos conteúdos. A eficácia dos anúncios e dos conteúdos pode ser medida. Podem ser obtidas informações sobre o público que visualizou os anúncios e os conteúdos. Estes dados podem ser usados para desenvolver ou melhorar sistemas, softwares ou a experiência do utilizador.

Ao clicar em "Eu concordo”, permitirá o uso de cookies, identificadores do dispositivo e web beacons mencionados ou outras tecnologias semelhantes. As configurações do navegador do seu dispositivo podem ser alteradas.

Para certos fins, podem ser invocados interesses legítimos ao invés de consentimento. Pode ler mais informação sobre este assunto na nossa Política de Privacidade e Cookies.